Springfield, OH

6:58 AM EST on December 11, 2016 (GMT -0500)
Springfield-Beckley Municipal

Weather History for KSGH - December, 2012

Change the Weather History Date:

Tuesday, December 4, 2012

  Actual Average (KFFO) Record (KFFO)
Temperature  
Mean Temperature 50 °F -  
Max Temperature 61 °F 43 °F 68 °F (1998)
Min Temperature 37 °F 29 °F 14 °F (2002)
Degree Days  
Heating Degree Days 16    
Moisture  
Dew Point 48 °F    
Average Humidity 85    
Maximum Humidity 96    
Minimum Humidity 69    
Precipitation  
Precipitation 0.48 in - - ()
Sea Level Pressure  
Sea Level Pressure 30.07 in    
Wind  
Wind Speed 12 mph (WSW)    
Max Wind Speed 22 mph    
Max Gust Speed 29 mph    
Visibility 4 miles    
Events Fog , Rain    
Averages and records for this station are not official NWS values.
T = Trace of Precipitation, MM = Missing Value Source: NWS Daily Summary

Daily Weather History Graph

Daily Weather History Graph

Search for Another Location

Airport or City:

Trip Planner

Search our weather history database for the weather conditions in past years. The results will help you decide how hot, cold, wet, or windy it might be!

Date:

Astronomy

Dec. 04, 2012 Rise Set
Actual Time 7:40 AM EST 5:10 PM EST
Civil Twilight 7:10 AM EST 5:40 PM EST
Nautical Twilight 6:37 AM EST 6:14 PM EST
Astronomical Twilight 6:04 AM EST 6:46 PM EST
Moon 10:56 PM EST (12/4) 11:35 AM EST (12/4)
Length of Visible Light 10h 29m
Length of Day
9h 29m
Waning Gibbous, 69% of the Moon is Illuminated
Dec 4
Waning Gibbous
Dec 6
Last Quarter
Dec 13
New
Dec 20
First Quarter
Dec 28
Full

Hourly Weather History & Observations

Time (EST) Temp. Windchill Dew Point Humidity Pressure Visibility Wind Dir Wind Speed Gust Speed Precip Events Conditions
12:56 AM 56.8 °F - 48.9 °F 75% 30.09 in 8.0 mi South 10.4 mph - N/A   Mostly Cloudy
1:56 AM 56.8 °F - 48.9 °F 75% 30.09 in 8.0 mi SSW 8.1 mph - N/A   Mostly Cloudy
2:56 AM 55.9 °F - 47.8 °F 74% 30.09 in 8.0 mi South 9.2 mph - N/A   Partly Cloudy
3:56 AM 55.9 °F - 47.8 °F 74% 30.08 in 8.0 mi SSW 8.1 mph - N/A   Mostly Cloudy
4:56 AM 56.8 °F - 47.8 °F 72% 30.07 in 8.0 mi SSW 12.7 mph - N/A   Overcast
5:56 AM 57.9 °F - 47.8 °F 69% 30.06 in 8.0 mi SSW 11.5 mph - N/A   Overcast
6:56 AM 57.9 °F - 47.8 °F 69% 30.07 in 7.0 mi SSW 12.7 mph - N/A   Overcast
7:56 AM 57.9 °F - 47.8 °F 69% 30.08 in 7.0 mi SW 12.7 mph - N/A   Overcast
8:40 AM 57.2 °F - 48.2 °F 72% 30.08 in 6.0 mi SSW 13.8 mph 20.7 mph N/A   Haze
8:49 AM 57.2 °F - 48.2 °F 72% 30.08 in 6.0 mi SSW 11.5 mph - N/A   Haze
8:56 AM 59.0 °F - 48.9 °F 69% 30.07 in 6.0 mi SSW 15.0 mph - N/A   Haze
9:56 AM 61.0 °F - 52.0 °F 72% 30.07 in 6.0 mi SSW 13.8 mph 25.3 mph N/A   Haze
10:56 AM 61.0 °F - 52.9 °F 75% 30.06 in 6.0 mi SSW 19.6 mph 27.6 mph N/A   Haze
11:26 AM 60.8 °F - 53.6 °F 77% 30.06 in 6.0 mi SSW 16.1 mph 21.9 mph N/A   Haze
11:56 AM 61.0 °F - 52.9 °F 75% 30.05 in 6.0 mi SSW 16.1 mph 23.0 mph N/A   Haze
12:56 PM 61.9 °F - 54.0 °F 75% 30.01 in 6.0 mi SSW 15.0 mph - N/A   Haze
1:56 PM 59.9 °F - 55.9 °F 87% 30.00 in 1.2 mi SW 15.0 mph - 0.04 in Rain Heavy Rain
2:03 PM 59.0 °F - 55.4 °F 88% 30.01 in 1.0 mi SW 12.7 mph - 0.01 in Rain Rain
2:05 PM 59.0 °F - 55.4 °F 88% 30.01 in 1.5 mi SW 12.7 mph - 0.02 in Rain Light Rain
2:16 PM 59.0 °F - 55.4 °F 88% 30.01 in 1.0 mi SW 11.5 mph - 0.06 in Rain Rain
2:21 PM 59.0 °F - 55.4 °F 88% 30.01 in 1.2 mi SW 10.4 mph - 0.08 in Rain Rain
2:31 PM 57.2 °F - 55.4 °F 94% 30.01 in 1.8 mi SW 11.5 mph - 0.10 in Rain Light Rain
2:38 PM 57.2 °F - 55.4 °F 94% 30.01 in 2.5 mi SW 12.7 mph - 0.11 in Rain Light Rain
2:44 PM 57.2 °F - 55.4 °F 94% 30.01 in 1.8 mi SW 10.4 mph - 0.13 in Rain Light Rain
2:56 PM 57.9 °F - 55.9 °F 93% 30.01 in 2.5 mi SW 10.4 mph - 0.14 in Rain Light Rain
3:01 PM 57.2 °F - 55.4 °F 94% 30.01 in 1.8 mi SW 11.5 mph - 0.01 in Rain Light Rain
3:05 PM 57.2 °F - 55.4 °F 94% 30.01 in 2.0 mi SW 12.7 mph - 0.01 in Rain Light Rain
3:14 PM 57.2 °F - 55.4 °F 94% 30.01 in 3.0 mi SW 10.4 mph - 0.01 in Rain Light Rain
3:21 PM 57.2 °F - 55.4 °F 94% 30.00 in 2.5 mi SW 12.7 mph - 0.02 in Rain Light Rain
3:24 PM 57.2 °F - 55.4 °F 94% 30.02 in 1.8 mi West 20.7 mph 24.2 mph 0.03 in Rain Rain
3:28 PM 55.4 °F - 53.6 °F 94% 30.00 in 1.0 mi North 19.6 mph 24.2 mph 0.07 in Rain Heavy Rain
3:32 PM 53.6 °F - 51.8 °F 94% 30.02 in 0.8 mi NNW 17.3 mph 24.2 mph 0.08 in Rain Heavy Rain
3:47 PM 48.2 °F - 46.4 °F 93% 30.04 in 0.5 mi NNW 17.3 mph - 0.19 in Fog , Rain Heavy Rain
3:56 PM 48.9 °F - 46.9 °F 93% 30.04 in 1.5 mi NNW 15.0 mph - 0.20 in Rain Light Rain
4:04 PM 48.2 °F - 46.4 °F 93% 30.04 in 2.0 mi NNW 13.8 mph - 0.01 in Rain Rain
4:20 PM 48.2 °F - 46.4 °F 93% 30.06 in 1.2 mi NNW 13.8 mph - 0.07 in Rain Heavy Rain
4:27 PM 46.4 °F 38.7 °F 44.6 °F 93% 30.07 in 1.0 mi NNW 20.7 mph - 0.08 in Rain Light Rain
4:30 PM 46.4 °F 39.0 °F 44.6 °F 93% 30.07 in 2.0 mi NNW 19.6 mph 23.0 mph 0.08 in Rain Light Rain
4:37 PM 44.6 °F 36.1 °F 42.8 °F 93% 30.08 in 4.0 mi NNW 21.9 mph - 0.08 in Rain Light Rain
4:46 PM 42.8 °F 33.8 °F 37.4 °F 81% 30.08 in 4.0 mi NNW 21.9 mph 28.8 mph 0.08 in Rain Light Rain
4:56 PM 43.0 °F 36.4 °F 37.9 °F 82% 30.10 in 4.0 mi NNW 12.7 mph - 0.08 in Rain Light Rain
5:18 PM 42.8 °F 37.5 °F 39.2 °F 87% 30.10 in 7.0 mi North 9.2 mph - 0.01 in   Overcast
5:56 PM 43.0 °F 37.7 °F 38.8 °F 85% 30.13 in 5.0 mi NNW 9.2 mph - 0.01 in Rain Light Rain
6:08 PM 42.8 °F 37.5 °F 39.2 °F 87% 30.12 in 5.0 mi NNW 9.2 mph - 0.00 in Rain Light Rain
6:56 PM 43.0 °F 38.2 °F 37.9 °F 82% 30.15 in 7.0 mi NNW 8.1 mph - 0.01 in Rain Light Rain
7:56 PM 43.0 °F 39.5 °F 38.8 °F 85% 30.17 in 7.0 mi West 5.8 mph - 0.00 in   Mostly Cloudy
8:56 PM 41.9 °F 38.2 °F 38.8 °F 89% 30.18 in 7.0 mi West 5.8 mph - N/A   Mostly Cloudy
9:56 PM 38.8 °F 33.8 °F 36.9 °F 93% 30.19 in 7.0 mi SW 6.9 mph - N/A   Clear
10:56 PM 38.8 °F 33.2 °F 36.9 °F 93% 30.21 in 6.0 mi WSW 8.1 mph - N/A   Clear
11:56 PM 37.9 °F 33.5 °F 36.9 °F 96% 30.21 in 6.0 mi WSW 5.8 mph - N/A   Clear